Overview Statistics Trail Chart Weather Telemetry Raw packets
 

This is the latest recevied weather packets stored in our database for station/object OE5MMP-13. If no packets are shown the sender has not sent any weather packets the latest 10 day(s).

<< 16 17 18 19 20 21 22 >>
Time Temp. Humidity Pressure Rain* Wind** Luminosity Snow
1788423190 20.56° C 61% 1023.3 hPa 0 mm - 810 W/m² -
1788422590 20.56° C 60% 1023.3 hPa 0 mm - 293 W/m² -
1788421995 20.56° C 61% 1023.3 hPa 0 mm - 288 W/m² -
1788421395 20.56° C 61% 1023.2 hPa 0 mm - 612 W/m² -
1788420795 20.56° C 61% 1023.1 hPa 0 mm - 460 W/m² -
1788420195 20° C 62% 1023.1 hPa 0 mm - 434 W/m² -
1788419595 20° C 61% 1023 hPa 0 mm - 320 W/m² -
1788418995 20° C 61% 1023 hPa 0 mm - 230 W/m² -
1788418395 19.44° C 63% 1022.7 hPa 0 mm - 334 W/m² -
1788417794 18.89° C 64% 1022.7 hPa 0 mm - 324 W/m² -
1788417194 18.89° C 65% 1022.7 hPa 0 mm - 111 W/m² -
1788416594 18.33° C 64% 1022.6 hPa 0 mm - 95 W/m² -
1788415995 18.33° C 64% 1022.6 hPa 0 mm - 93 W/m² -
1788415394 18.33° C 64% 1022.7 hPa 0 mm - 189 W/m² -
1788414794 18.33° C 68% 1022.5 hPa 0 mm - 188 W/m² -
1788414194 17.78° C 68% 1022.4 hPa 0 mm - 151 W/m² -
1788413594 17.78° C 68% 1022.4 hPa 0 mm - 117 W/m² -
1788412994 17.22° C 68% 1022.4 hPa 0 mm - 66 W/m² -
1788412394 17.22° C 68% 1022.5 hPa 0 mm - 44 W/m² -
1788411794 17.22° C 68% 1022.5 hPa 0 mm - 26 W/m² -
1788411194 17.22° C 68% 1022.4 hPa 0 mm - 12 W/m² -
1788410594 17.22° C 68% 1022.4 hPa 0 mm - 9 W/m² -
1788409994 17.22° C 68% 1022.4 hPa 0 mm - 5 W/m² -
1788409394 17.22° C 68% 1022.4 hPa 0 mm - 0 W/m² -
1788408794 17.22° C 67% 1022.5 hPa 0 mm - 0 W/m² -

* Rain latest hour (hover to see other rain measurements)
** Current wind speed in m/s (hover to see current wind gust speed)